Weather History for Nakika, MS

Change the Weather History Date:

Friday, May 2, 2014

  Actual Average Record
Temperature  
Mean Temperature 64 °F -  
Max Temperature 69 °F - - ()
Min Temperature 59 °F - - ()
Degree Days  
Heating Degree Days 1    
Growing Degree Days 14 (Base 50)    
Moisture  
Dew Point 55 °F    
Average Humidity 68    
Maximum Humidity 82    
Minimum Humidity 56    
Precipitation  
Precipitation 0.00 in - - ()
Sea Level Pressure  
Sea Level Pressure 29.96 in    
Wind  
Wind Speed 12 mph (NE)    
Max Wind Speed 20 mph    
Max Gust Speed 26 mph    
Visibility 10 miles    
Events      
T = Trace of Precipitation, MM = Missing Value Source: NWS Daily Summary

Daily Weather History Graph

Daily Weather History Graph

Search for Another Location

Airport:

Trip Planner

Search our weather history database for the weather conditions in past years. The results will help you decide how hot, cold, wet, or windy it might be!

Date:

Astronomy

May. 02, 2014 Rise Set
Actual Time 6:11 AM CDT 7:28 PM CDT
Civil Twilight 5:46 AM CDT 7:53 PM CDT
Nautical Twilight 5:17 AM CDT 8:23 PM CDT
Astronomical Twilight 4:46 AM CDT 8:54 PM CDT
Moon 8:53 AM CDT (5/2) 10:46 PM CDT (5/2)
Length of Visible Light 14h 07m
Length of Day
13h 17m
Waxing Crescent, 12% of the Moon is Illuminated
May 2
Waxing Crescent
May 6
First Quarter
May 14
Full
May 21
Last Quarter
May 28
New

Hourly Weather History & Observations

Time (CDT) Temp. Dew Point Humidity Pressure Visibility Wind Dir Wind Speed Gust Speed Precip Events Conditions
12:15 AM 60.8 °F 51.8 °F 72% 30.00 in 6.0 mi NE 9.2 mph 15.0 mph N/A   Haze
12:35 AM 62.6 °F 53.6 °F 72% 30.01 in 10.0 mi ENE 10.4 mph - N/A   Overcast
12:55 AM 60.8 °F 55.4 °F 82% 29.99 in 3.0 mi ENE 13.8 mph - N/A   Haze
1:15 AM 59.0 °F 53.6 °F 82% 29.99 in 4.0 mi NNE 12.7 mph - N/A   Haze
1:35 AM 59.0 °F 53.6 °F 82% 29.99 in 6.0 mi NNE 12.7 mph - N/A   Haze
1:55 AM 60.8 °F 51.8 °F 72% 29.98 in 10.0 mi NNE 16.1 mph - N/A   Overcast
2:15 AM 60.8 °F 53.6 °F 77% 29.96 in 7.0 mi NE 12.7 mph 20.7 mph N/A   Overcast
2:35 AM 62.6 °F 53.6 °F 72% 29.95 in 10.0 mi NE 11.5 mph 20.7 mph N/A   Overcast
2:55 AM 62.6 °F 53.6 °F 72% 29.95 in 10.0 mi NNE 17.3 mph - N/A   Overcast
3:15 AM 64.4 °F 55.4 °F 73% 29.95 in 10.0 mi North 15.0 mph 23.0 mph N/A   Overcast
3:35 AM 62.6 °F 55.4 °F 77% 29.96 in 7.0 mi NNE 19.6 mph 25.3 mph N/A   Overcast
3:55 AM 62.6 °F 55.4 °F 77% 29.94 in 10.0 mi NNE 18.4 mph - N/A   Overcast
4:15 AM 64.4 °F 55.4 °F 73% 29.95 in 10.0 mi NNE 18.4 mph - N/A   Overcast
4:35 AM 64.4 °F 53.6 °F 68% 29.95 in 10.0 mi NNE 16.1 mph - N/A   Overcast
4:55 AM 64.4 °F 51.8 °F 64% 29.96 in 10.0 mi NNE 15.0 mph - N/A   Overcast
5:15 AM 64.4 °F 51.8 °F 64% 29.96 in 10.0 mi NNE 13.8 mph 21.9 mph N/A   Overcast
5:35 AM 64.4 °F 51.8 °F 64% 29.94 in 10.0 mi NNE 19.6 mph 26.5 mph N/A   Overcast
5:55 AM 64.4 °F 51.8 °F 64% 29.96 in 7.0 mi ENE 18.4 mph - N/A   Overcast
6:15 AM 62.6 °F 53.6 °F 72% 29.96 in 7.0 mi NE 10.4 mph 20.7 mph N/A   Overcast
6:35 AM 64.4 °F 55.4 °F 73% 29.95 in 10.0 mi NE 11.5 mph 21.9 mph N/A   Overcast
6:55 AM 64.4 °F 55.4 °F 73% 29.95 in 10.0 mi ENE 11.5 mph 21.9 mph N/A   Overcast
7:15 AM 64.4 °F 55.4 °F 73% 29.96 in 10.0 mi NE 9.2 mph 21.9 mph N/A   Overcast
7:35 AM 64.4 °F 55.4 °F 73% 29.95 in 9.0 mi NE 11.5 mph 20.7 mph N/A   Overcast
7:55 AM 64.4 °F 57.2 °F 77% 29.94 in 10.0 mi NE 11.5 mph 24.2 mph N/A   Overcast
8:15 AM 64.4 °F 57.2 °F 77% 29.95 in 10.0 mi NNE 12.7 mph 20.7 mph N/A   Overcast
8:35 AM 64.4 °F 57.2 °F 77% 29.97 in 10.0 mi NNE 11.5 mph 18.4 mph N/A   Overcast
8:55 AM 64.4 °F 57.2 °F 77% 29.97 in 10.0 mi NNE 15.0 mph - N/A   Overcast
9:15 AM 64.4 °F 57.2 °F 77% 29.98 in 10.0 mi NE 9.2 mph 17.3 mph N/A   Overcast
9:35 AM 64.4 °F 57.2 °F 77% 29.99 in 10.0 mi NE 8.1 mph 23.0 mph N/A   Overcast
9:55 AM 64.4 °F 57.2 °F 77% 29.98 in 10.0 mi ENE 10.4 mph 19.6 mph N/A   Overcast
10:15 AM 66.2 °F 57.2 °F 73% 29.97 in 10.0 mi ENE 16.1 mph - N/A   Overcast
10:35 AM 66.2 °F 57.2 °F 73% 29.98 in 10.0 mi NNE 18.4 mph - N/A   Overcast
10:55 AM 66.2 °F 55.4 °F 68% 29.99 in 10.0 mi ENE 15.0 mph - N/A   Overcast
11:15 AM 66.2 °F 55.4 °F 68% 30.00 in 10.0 mi ENE 15.0 mph - N/A   Overcast
11:35 AM 66.2 °F 55.4 °F 68% 30.00 in 10.0 mi NE 6.9 mph 15.0 mph N/A   Overcast
12:15 PM 66.2 °F 53.6 °F 64% 30.01 in 10.0 mi NNE 9.2 mph - N/A   Overcast
12:35 PM 66.2 °F 55.4 °F 68% 30.00 in 10.0 mi NE 6.9 mph 13.8 mph N/A   Overcast
12:55 PM 66.2 °F 53.6 °F 64% 29.99 in 10.0 mi NNE 12.7 mph - N/A   Overcast
1:15 PM 68.0 °F 55.4 °F 64% 29.99 in 10.0 mi NE 10.4 mph - N/A   Mostly Cloudy
1:35 PM 66.2 °F 55.4 °F 68% 29.99 in 10.0 mi NNE 11.5 mph - N/A   Scattered Clouds
1:55 PM 68.0 °F 53.6 °F 60% 29.98 in - NE 8.1 mph - N/A   Scattered Clouds
2:15 PM 68.0 °F 55.4 °F 64% 29.98 in 10.0 mi NE 8.1 mph - N/A   Clear
2:35 PM 66.2 °F 53.6 °F 64% 29.95 in 10.0 mi ENE 11.5 mph 19.6 mph N/A   Clear
2:55 PM 68.0 °F 55.4 °F 64% 29.94 in 10.0 mi ENE 12.7 mph - N/A   Clear
3:15 PM 68.0 °F 55.4 °F 64% 29.93 in 10.0 mi NE 9.2 mph - N/A   Clear
3:35 PM 68.0 °F 57.2 °F 68% 29.93 in 10.0 mi NE 8.1 mph 15.0 mph N/A   Clear
3:55 PM 68.0 °F 55.4 °F 64% 29.93 in 10.0 mi NNE 11.5 mph - N/A   Clear
4:15 PM 68.0 °F 55.4 °F 64% 29.94 in 10.0 mi NNE 13.8 mph - N/A   Clear
4:35 PM 68.0 °F 55.4 °F 64% 29.95 in 10.0 mi NNE 13.8 mph - N/A   Clear
4:55 PM 68.0 °F 55.4 °F 64% 29.95 in 10.0 mi NNE 12.7 mph - N/A   Partly Cloudy
5:15 PM 68.0 °F 55.4 °F 64% 29.94 in 10.0 mi NNE 16.1 mph - N/A   Partly Cloudy
5:35 PM 68.0 °F 55.4 °F 64% 29.92 in 10.0 mi NNE 16.1 mph - N/A   Clear
5:55 PM 68.0 °F 55.4 °F 64% 29.91 in 10.0 mi NE 11.5 mph 17.3 mph N/A   Scattered Clouds
6:15 PM 68.0 °F 55.4 °F 64% 29.92 in 10.0 mi NNE 12.7 mph - N/A   Mostly Cloudy
6:35 PM 68.0 °F 53.6 °F 60% 29.93 in 10.0 mi NNE 12.7 mph - N/A   Mostly Cloudy
6:55 PM 68.0 °F 53.6 °F 60% 29.94 in 10.0 mi NNE 10.4 mph - N/A   Mostly Cloudy
7:15 PM 68.0 °F 55.4 °F 64% 29.94 in 10.0 mi Calm Calm 13.8 mph N/A   Overcast
7:35 PM 68.0 °F 51.8 °F 56% 29.94 in 10.0 mi North 8.1 mph 13.8 mph N/A   Overcast
7:55 PM 68.0 °F 53.6 °F 60% 29.95 in 10.0 mi North 8.1 mph - N/A   Overcast
8:15 PM 68.0 °F 53.6 °F 60% 29.95 in 10.0 mi Variable 4.6 mph - N/A   Overcast
8:35 PM 68.0 °F 53.6 °F 60% 29.95 in 10.0 mi Variable 4.6 mph 13.8 mph N/A   Overcast
8:55 PM 68.0 °F 51.8 °F 56% 29.95 in 10.0 mi North 9.2 mph - N/A   Overcast
9:15 PM 68.0 °F 53.6 °F 60% 29.95 in 10.0 mi NNE 9.2 mph - N/A   Overcast
9:35 PM 68.0 °F 53.6 °F 60% 29.96 in 10.0 mi North 8.1 mph 15.0 mph N/A   Overcast
9:55 PM 68.0 °F 51.8 °F 56% 29.96 in 10.0 mi Variable 4.6 mph 12.7 mph N/A   Overcast
10:15 PM 68.0 °F 53.6 °F 60% 29.98 in 10.0 mi Variable 4.6 mph 13.8 mph N/A   Overcast
10:35 PM 68.0 °F 53.6 °F 60% 29.97 in 10.0 mi Variable 4.6 mph 15.0 mph N/A   Mostly Cloudy
10:55 PM 68.0 °F 53.6 °F 60% 29.97 in 10.0 mi Variable 5.8 mph 16.1 mph N/A   Scattered Clouds
11:15 PM 68.0 °F 53.6 °F 60% 29.97 in 10.0 mi Variable 5.8 mph 13.8 mph N/A   Mostly Cloudy
11:35 PM 69.8 °F 55.4 °F 60% 29.97 in 10.0 mi Variable 4.6 mph - N/A   Overcast
11:55 PM 69.8 °F 55.4 °F 60% 29.98 in 10.0 mi Variable 4.6 mph - N/A   Overcast